Home   Weather   25°41'N, 100°16'W   Past weeks
Flag for Mexico

Past Weather in 25°41'N, 100°16'W, Mexico — Yesterday and Last 2 Weeks

Now
73 °F

Passing clouds.


Feels Like: 72 °F
Forecast: 75 / 65 °F
Wind: No wind

Location: Aerop. Internacional Monterrey - N. L.

Current Time: Oct 16, 2019 at 7:07:20 am

Latest Report: Oct 16, 2019 at 5:26 am


Visibility: 6 mi

Pressure: 29.95 "Hg

Humidity: 89%

Dew Point: 70 °F

Location of 25°41'N, 100°16'WLocation

Past Weather in 25°41'N, 100°16'W — Graph

°F

25°41'N, 100°16'W Temperature Yesterday

Maximum temperature yesterday: 88 °F (at 4:40 pm)
Minimum temperature yesterday: 72 °F (at 6:40 am)
Average temperature yesterday: 80 °F

High & Low Weather Summary for the Past Weeks

 TemperatureHumidityPressure
High91 °F (Oct 6, 4:42 pm)100% (Oct 1, 6:40 am)30.31 "Hg (Oct 1, 6:40 am)
Low54 °F (Oct 11, 10:24 pm)38% (Oct 6, 2:40 pm)29.79 "Hg (Oct 10, 5:40 pm)
Average77 °F65%30.01 "Hg
* Reported Oct 1 6:40 am — Oct 16 5:26 am, 25°41'N, 100°16'W. Weather by CustomWeather, © 2019

Note: Actual official high and low records may vary slightly from our data, if they occured in-between our weather recording intervals... More about our weather records

Advertising

25°41'N, 100°16'W Weather History for the Previous 24 Hours

Scroll right to see more
 ConditionsComfort  
Time TempWeatherWind HumidityBarometerVisibility
5:26 am
Wed, Oct 16
73 °FPassing clouds.No wind89%29.95 "Hg6 mi
11:40 pm
Tue, Oct 15
75 °FClear.7 mph78%29.95 "Hg6 mi
10:40 pm79 °FClear.2 mph65%29.93 "Hg6 mi
9:40 pm81 °FClear.3 mph62%29.91 "Hg6 mi
8:40 pm82 °FClear.5 mph58%29.90 "Hg6 mi
7:40 pm84 °FClear.5 mph55%29.89 "Hg7 mi
6:40 pm86 °FSunny.7 mph52%29.88 "Hg6 mi
5:40 pm86 °FSunny.3 mph52%29.87 "Hg5 mi
4:40 pm88 °FSunny.7 mph52%29.87 "Hg5 mi
3:40 pm86 °FSunny.6 mph52%29.88 "Hg5 mi
2:40 pm84 °FSunny.6 mph55%29.90 "Hg5 mi
1:40 pm82 °FSunny.7 mph62%29.92 "Hg5 mi
12:40 pm81 °FSunny.7 mph66%29.95 "Hg5 mi
11:40 am79 °FScattered clouds.No wind70%29.98 "Hg5 mi
11:15 am77 °FScattered clouds.No wind74%29.98 "Hg4 mi
10:40 am75 °FBroken clouds.No wind78%29.99 "Hg4 mi
9:40 am73 °FMostly cloudy.No wind83%29.98 "Hg4 mi
8:40 am73 °FMostly cloudy.3 mph89%29.97 "Hg4 mi
7:40 am72 °FMostly cloudy.5 mph94%29.97 "Hg4 mi
Weather by CustomWeather, © 2019

See weather overview